ANA316 RJNT-RJTT

Flight info

Callsign ANA316
Flight time 0h 51m
Altitude 31000
Route HISUI Y31 GUSGI Y10 GODIN
Aircraft A21N/M-SDE2FGHIJ2J3J4J5LM1ORVWXY/LB1D1

Departure

Time 2026-05-04 11:53
Airport Toyama Kitokito Airport (RJNT)

Arrival

Time 2026-05-04 12:44
Airport Tokyo Haneda International Airport (RJTT)
Time Latitude Longitude Altitude Speed Heading
2026-05-04 11:19 36.64407 137.18847 85 ft 0 kts 127°
2026-05-04 11:44 36.64418 137.18829 85 ft 4 kts 127°
2026-05-04 11:44 36.64433 137.18802 84 ft 3 kts 126°
2026-05-04 11:44 36.64448 137.18782 84 ft 4 kts 148°
2026-05-04 11:45 36.64471 137.18775 82 ft 4 kts 191°
2026-05-04 11:45 36.64497 137.18784 85 ft 3 kts 194°
2026-05-04 11:45 36.64499 137.18785 83 ft 0 kts 193°
2026-05-04 11:48 36.64496 137.18784 85 ft 3 kts 193°
2026-05-04 11:49 36.64458 137.18773 83 ft 8 kts 194°
2026-05-04 11:49 36.64414 137.18734 84 ft 9 kts 236°
2026-05-04 11:49 36.64407 137.18715 82 ft 0 kts 257°
2026-05-04 11:50 36.64407 137.18714 82 ft 0 kts 257°
2026-05-04 11:50 36.64407 137.18685 82 ft 8 kts 274°
2026-05-04 11:50 36.64385 137.18610 82 ft 11 kts 216°
2026-05-04 11:50 36.64311 137.18581 84 ft 12 kts 194°
2026-05-04 11:51 36.64220 137.18553 84 ft 13 kts 193°
2026-05-04 11:51 36.64130 137.18526 82 ft 13 kts 193°
2026-05-04 11:51 36.64066 137.18484 81 ft 10 kts 224°
2026-05-04 11:51 36.64011 137.18441 82 ft 9 kts 181°
2026-05-04 11:52 36.63999 137.18485 83 ft 7 kts 45°
2026-05-04 11:52 36.64026 137.18497 85 ft 0 kts 14°
2026-05-04 11:52 36.64048 137.18504 85 ft 18 kts 14°
2026-05-04 11:52 36.64492 137.18637 81 ft 115 kts 14°
2026-05-04 11:53 36.65569 137.18968 317 ft 187 kts 13°
2026-05-04 11:53 36.66884 137.19275 1618 ft 194 kts 360°
2026-05-04 11:53 36.68220 137.19299 2892 ft 190 kts 356°
2026-05-04 11:53 36.69544 137.19335 3767 ft 194 kts 356°
2026-05-04 11:55 36.80531 137.23559 8475 ft 287 kts 38°
2026-05-04 11:55 36.82023 137.25249 9319 ft 291 kts 37°
2026-05-04 11:56 36.83539 137.26945 10088 ft 297 kts 36°
2026-05-04 11:56 36.85138 137.28709 10482 ft 316 kts 36°
2026-05-04 11:56 36.86843 137.30580 10778 ft 336 kts 36°
2026-05-04 11:56 36.88654 137.32565 11060 ft 356 kts 36°
2026-05-04 11:57 36.90573 137.34655 11331 ft 375 kts 36°
2026-05-04 11:57 36.92588 137.36854 11591 ft 393 kts 37°
2026-05-04 11:57 36.94689 137.39161 11859 ft 408 kts 37°
2026-05-04 11:57 36.96849 137.41535 12312 ft 415 kts 37°
2026-05-04 11:58 36.99017 137.43910 12826 ft 421 kts 37°
2026-05-04 11:58 37.01227 137.46342 13331 ft 425 kts 37°
2026-05-04 11:58 37.03473 137.48779 13812 ft 427 kts 34°
2026-05-04 11:58 37.05912 137.50890 14199 ft 429 kts 27°
2026-05-04 11:59 37.08456 137.52898 14636 ft 434 kts 26°
2026-05-04 11:59 37.11023 137.54909 15048 ft 438 kts 26°
2026-05-04 11:59 37.13631 137.56950 15470 ft 444 kts 26°
2026-05-04 11:59 37.16265 137.59018 15916 ft 450 kts 26°
2026-05-04 12:00 37.18939 137.61127 16391 ft 456 kts 26°
2026-05-04 12:00 37.21636 137.63250 16933 ft 459 kts 26°
2026-05-04 12:00 37.24362 137.65402 17408 ft 465 kts 26°
2026-05-04 12:00 37.27120 137.67577 17813 ft 471 kts 26°
2026-05-04 12:01 37.29880 137.69759 18243 ft 477 kts 26°
2026-05-04 12:01 37.32701 137.71992 18619 ft 482 kts 25°
2026-05-04 12:02 37.50159 137.86013 20765 ft 515 kts 32°
2026-05-04 12:03 37.52756 137.89187 21185 ft 528 kts 46°
2026-05-04 12:03 37.54785 137.93169 21476 ft 540 kts 62°
2026-05-04 12:03 37.56021 137.97602 21764 ft 546 kts 78°
2026-05-04 12:03 37.56431 138.02356 22081 ft 547 kts 94°
2026-05-04 12:04 37.55976 138.07093 22269 ft 542 kts 110°
2026-05-04 12:04 37.54794 138.11576 22587 ft 539 kts 118°
2026-05-04 12:04 37.53466 138.16016 22935 ft 544 kts 118°
2026-05-04 12:04 37.52181 138.20527 23278 ft 550 kts 116°
2026-05-04 12:05 37.50946 138.25121 23604 ft 555 kts 116°
2026-05-04 12:05 37.49739 138.29743 23904 ft 558 kts 116°
2026-05-04 12:05 37.48533 138.34393 24193 ft 558 kts 116°
2026-05-04 12:05 37.47320 138.39031 24600 ft 557 kts 117°
2026-05-04 12:06 37.46103 138.43658 24988 ft 556 kts 117°
2026-05-04 12:06 37.44887 138.48278 25368 ft 556 kts 117°
2026-05-04 12:06 37.43667 138.52900 25756 ft 555 kts 118°
2026-05-04 12:06 37.42465 138.57442 26127 ft 554 kts 118°
2026-05-04 12:07 37.41244 138.62045 26516 ft 552 kts 118°
2026-05-04 12:07 37.40029 138.66621 26948 ft 550 kts 119°
2026-05-04 12:07 37.38813 138.71182 27325 ft 550 kts 119°
2026-05-04 12:07 37.37598 138.75742 27669 ft 550 kts 119°
2026-05-04 12:08 37.36393 138.80297 28076 ft 549 kts 119°
2026-05-04 12:08 37.35192 138.84841 28433 ft 548 kts 119°
2026-05-04 12:08 37.33989 138.89381 28831 ft 546 kts 120°
2026-05-04 12:08 37.32789 138.93904 29295 ft 543 kts 120°
2026-05-04 12:09 37.31590 138.98399 29669 ft 542 kts 120°
2026-05-04 12:09 37.30387 139.02898 30050 ft 541 kts 121°
2026-05-04 12:09 37.29191 139.07370 30353 ft 539 kts 121°
2026-05-04 12:09 37.27994 139.11831 30652 ft 538 kts 121°
2026-05-04 12:10 37.26810 139.16234 30907 ft 538 kts 121°
2026-05-04 12:10 37.25617 139.20677 30919 ft 537 kts 121°
2026-05-04 12:10 37.23223 139.29569 30936 ft 536 kts 121°
2026-05-04 12:11 37.20823 139.38430 30916 ft 537 kts 121°
2026-05-04 12:11 37.18432 139.47234 30881 ft 530 kts 121°
2026-05-04 12:12 37.16055 139.55947 30868 ft 531 kts 122°
2026-05-04 12:12 37.13666 139.64702 30861 ft 530 kts 122°
2026-05-04 12:14 37.02298 139.97885 28229 ft 478 kts 153°
2026-05-04 12:15 36.99824 140.00690 27423 ft 488 kts 149°
2026-05-04 12:15 36.97464 140.03787 26649 ft 495 kts 146°
2026-05-04 12:15 36.95164 140.06956 25854 ft 489 kts 145°
2026-05-04 12:15 36.92895 140.10083 25076 ft 482 kts 145°
2026-05-04 12:16 36.90640 140.13159 24342 ft 476 kts 145°
2026-05-04 12:16 36.88410 140.16177 23633 ft 470 kts 145°
2026-05-04 12:16 36.86198 140.19154 22834 ft 465 kts 145°
2026-05-04 12:16 36.84015 140.22091 21999 ft 460 kts 145°
2026-05-04 12:17 36.81849 140.25006 21190 ft 454 kts 145°
2026-05-04 12:17 36.79704 140.27890 20340 ft 449 kts 145°
2026-05-04 12:17 36.78295 140.29767 19834 ft 444 kts 146°
2026-05-04 12:17 36.75990 140.32163 19074 ft 416 kts 160°
2026-05-04 12:18 36.72614 140.33877 18175 ft 380 kts 179°
2026-05-04 12:18 36.70070 140.34144 17398 ft 358 kts 192°
2026-05-04 12:18 36.67653 140.33768 16703 ft 345 kts 199°
2026-05-04 12:18 36.66071 140.33418 16292 ft 338 kts 199°
2026-05-04 12:19 36.63071 140.32764 15847 ft 320 kts 199°
2026-05-04 12:19 36.60901 140.32308 15583 ft 313 kts 198°
2026-05-04 12:19 36.59484 140.32012 15446 ft 313 kts 198°
2026-05-04 12:19 36.56612 140.31421 15204 ft 313 kts 198°
2026-05-04 12:20 36.55190 140.31131 15111 ft 313 kts 198°
2026-05-04 12:20 36.53040 140.30696 14966 ft 313 kts 198°
2026-05-04 12:20 36.50888 140.30264 14807 ft 313 kts 197°
2026-05-04 12:20 36.48737 140.29833 14649 ft 313 kts 197°
2026-05-04 12:21 36.46580 140.29401 14495 ft 313 kts 197°
2026-05-04 12:21 36.44435 140.28972 14317 ft 313 kts 197°
2026-05-04 12:21 36.42282 140.28542 14164 ft 313 kts 197°
2026-05-04 12:21 36.40129 140.28112 14013 ft 313 kts 197°
2026-05-04 12:22 36.37978 140.27684 13862 ft 313 kts 197°
2026-05-04 12:22 36.35854 140.27259 13724 ft 313 kts 197°
2026-05-04 12:22 36.33702 140.26830 13561 ft 313 kts 197°
2026-05-04 12:22 36.31550 140.26402 13389 ft 313 kts 197°
2026-05-04 12:23 36.29402 140.25972 13210 ft 315 kts 196°
2026-05-04 12:23 36.27192 140.25530 13042 ft 316 kts 196°
2026-05-04 12:23 36.25029 140.25103 12886 ft 312 kts 196°
2026-05-04 12:23 36.22883 140.24677 12690 ft 313 kts 197°
2026-05-04 12:24 36.20729 140.24248 12519 ft 313 kts 197°
2026-05-04 12:24 36.18607 140.23825 12363 ft 313 kts 196°
2026-05-04 12:24 36.16456 140.23396 12214 ft 313 kts 196°
2026-05-04 12:24 36.14310 140.22966 12019 ft 312 kts 196°
2026-05-04 12:25 36.12158 140.22539 11810 ft 312 kts 196°
2026-05-04 12:25 36.09996 140.22115 11590 ft 312 kts 195°
2026-05-04 12:25 36.07863 140.21783 11373 ft 313 kts 193°
2026-05-04 12:25 36.05674 140.21468 11144 ft 312 kts 193°
2026-05-04 12:26 36.03541 140.21160 10961 ft 312 kts 193°
2026-05-04 12:26 36.01376 140.20845 10788 ft 313 kts 193°
2026-05-04 12:26 35.99207 140.20527 10620 ft 313 kts 193°
2026-05-04 12:26 35.97050 140.20210 10456 ft 313 kts 192°
2026-05-04 12:27 35.94884 140.19891 10299 ft 313 kts 192°
2026-05-04 12:27 35.92723 140.19574 10149 ft 313 kts 192°
2026-05-04 12:27 35.90552 140.19253 9984 ft 315 kts 191°
2026-05-04 12:27 35.88385 140.18935 9841 ft 314 kts 191°
2026-05-04 12:28 35.86207 140.18616 9688 ft 314 kts 191°
2026-05-04 12:28 35.84081 140.18306 9535 ft 300 kts 191°
2026-05-04 12:28 35.82059 140.18013 9369 ft 286 kts 191°
2026-05-04 12:28 35.80110 140.17728 9183 ft 280 kts 191°
2026-05-04 12:29 35.78201 140.17445 9005 ft 280 kts 191°
2026-05-04 12:29 35.76260 140.17159 8833 ft 280 kts 191°
2026-05-04 12:29 35.74317 140.16874 8635 ft 282 kts 191°
2026-05-04 12:29 35.72365 140.16588 8409 ft 281 kts 191°
2026-05-04 12:30 35.70420 140.16303 8188 ft 282 kts 192°
2026-05-04 12:30 35.68466 140.16017 7959 ft 282 kts 192°
2026-05-04 12:30 35.66513 140.15731 7727 ft 283 kts 192°
2026-05-04 12:30 35.64555 140.15446 7505 ft 283 kts 191°
2026-05-04 12:31 35.62616 140.15163 7279 ft 284 kts 191°
2026-05-04 12:31 35.60664 140.14878 7009 ft 282 kts 192°
2026-05-04 12:31 35.58711 140.14594 6723 ft 282 kts 192°
2026-05-04 12:31 35.56754 140.14308 6422 ft 284 kts 193°
2026-05-04 12:32 35.54804 140.14025 6108 ft 280 kts 192°
2026-05-04 12:32 35.50946 140.13464 5275 ft 279 kts 193°
2026-05-04 12:32 35.49017 140.13183 4883 ft 279 kts 192°
2026-05-04 12:33 35.47085 140.12902 4529 ft 278 kts 192°
2026-05-04 12:33 35.45176 140.12624 4273 ft 276 kts 192°
2026-05-04 12:33 35.43255 140.12343 4071 ft 278 kts 193°
2026-05-04 12:33 35.41336 140.12062 3878 ft 278 kts 192°
2026-05-04 12:34 35.39417 140.11783 3721 ft 278 kts 191°
2026-05-04 12:34 35.37500 140.11506 3699 ft 277 kts 191°
2026-05-04 12:34 35.35618 140.11233 3720 ft 275 kts 192°
2026-05-04 12:34 35.33695 140.10952 3860 ft 275 kts 192°
2026-05-04 12:35 35.31819 140.10677 3940 ft 275 kts 192°
2026-05-04 12:35 35.29976 140.10225 3964 ft 267 kts 209°
2026-05-04 12:35 35.28567 140.08882 3986 ft 252 kts 241°
2026-05-04 12:35 35.27706 140.07054 4009 ft 247 kts 250°
2026-05-04 12:36 35.26977 140.05210 3996 ft 231 kts 255°
2026-05-04 12:36 35.26679 140.03412 3959 ft 204 kts 279°
2026-05-04 12:36 35.27035 140.01789 3976 ft 197 kts 301°
2026-05-04 12:36 35.27740 140.00354 3990 ft 197 kts 305°
2026-05-04 12:37 35.28471 139.98937 3989 ft 196 kts 306°
2026-05-04 12:37 35.29405 139.97754 3982 ft 195 kts 326°
2026-05-04 12:37 35.30580 139.96939 3987 ft 194 kts 330°
2026-05-04 12:37 35.31794 139.96130 3988 ft 202 kts 334°
2026-05-04 12:38 35.33038 139.95290 3982 ft 205 kts 332°
2026-05-04 12:38 35.34261 139.94432 3986 ft 205 kts 331°
2026-05-04 12:38 35.35486 139.93575 3973 ft 198 kts 328°
2026-05-04 12:38 35.36666 139.92739 3830 ft 194 kts 327°
2026-05-04 12:39 35.37838 139.91911 3617 ft 193 kts 327°
2026-05-04 12:39 35.38999 139.91092 3380 ft 192 kts 328°
2026-05-04 12:39 35.40141 139.90286 3144 ft 186 kts 328°
2026-05-04 12:39 35.41227 139.89520 2960 ft 172 kts 328°
2026-05-04 12:40 35.42233 139.88810 2743 ft 162 kts 328°
2026-05-04 12:40 35.43187 139.88136 2512 ft 154 kts 329°
2026-05-04 12:40 35.44102 139.87490 2289 ft 153 kts 329°
2026-05-04 12:40 35.45020 139.86841 2071 ft 153 kts 329°
2026-05-04 12:41 35.45949 139.86184 1852 ft 154 kts 330°
2026-05-04 12:41 35.46853 139.85546 1643 ft 144 kts 331°
2026-05-04 12:41 35.47686 139.84957 1484 ft 135 kts 332°
2026-05-04 12:41 35.48510 139.84375 1316 ft 138 kts 333°
2026-05-04 12:42 35.49319 139.83803 1119 ft 128 kts 330°
2026-05-04 12:42 35.50020 139.83307 953 ft 111 kts 330°
2026-05-04 12:42 35.50687 139.82825 802 ft 112 kts 332°
2026-05-04 12:42 35.51373 139.82332 654 ft 113 kts 334°
2026-05-04 12:43 35.52062 139.81852 521 ft 116 kts 336°
2026-05-04 12:43 35.52771 139.81357 388 ft 120 kts 336°
2026-05-04 12:43 35.53500 139.80842 228 ft 119 kts 336°
2026-05-04 12:43 35.54202 139.80349 72 ft 116 kts 335°
2026-05-04 12:44 35.54869 139.79878 34 ft 101 kts 330°
2026-05-04 12:44 35.55324 139.79553 33 ft 51 kts 330°
2026-05-04 12:44 35.55514 139.79419 32 ft 30 kts 329°
2026-05-04 12:44 35.55686 139.79268 32 ft 29 kts 314°
2026-05-04 12:45 35.55767 139.79147 30 ft 8 kts 304°
2026-05-04 12:45 35.55792 139.79075 29 ft 11 kts 268°
2026-05-04 12:45 35.55760 139.78984 31 ft 12 kts 239°
2026-05-04 12:45 35.55714 139.78889 30 ft 14 kts 239°
2026-05-04 12:46 35.55670 139.78799 30 ft 11 kts 239°
2026-05-04 12:46 35.55649 139.78738 32 ft 8 kts 266°
2026-05-04 12:46 35.55680 139.78679 30 ft 7 kts 330°
2026-05-04 12:46 35.55729 139.78646 30 ft 9 kts 331°
2026-05-04 12:47 35.55741 139.78604 29 ft 5 kts 252°
2026-05-04 12:47 35.55730 139.78577 28 ft 4 kts 239°
2026-05-04 12:47 35.55719 139.78554 29 ft 3 kts 240°
2026-05-04 12:47 35.55715 139.78545 29 ft 1 kts 240°
2026-05-04 12:48 35.55712 139.78540 29 ft 0 kts 240°